Location: Vancouver
(49.2500°N, 123.1330°W)
Time: 23:24:11
(UTC-07:00)

SO-67 - Visible Passes

Search period start: 21 October 2014 00:00
Search period end: 31 October 2014 00:00
Orbit: 458 x 462 km, 97.2° (Epoch: 21 October)

Date Brightness Start Highest point End Pass type
(mag) Time Alt. Az. Time Alt. Az. Time Alt. Az.
21 Oct ? 18:41:05 10° SE 18:44:02 27° ENE 18:47:01 10° N visible
21 Oct ? 20:14:16 10° SSW 20:17:02 22° W 20:19:49 10° NW visible
22 Oct ? 19:41:47 10° S 19:45:09 53° W 19:48:32 10° NNW visible
23 Oct ? 19:09:58 10° SSE 19:13:22 60° ENE 19:16:47 10° N visible
23 Oct ? 20:45:51 10° WSW 20:46:44 11° W 20:47:37 10° WNW visible
24 Oct ? 18:38:47 10° SE 18:41:41 26° ENE 18:44:36 10° N visible
24 Oct ? 20:11:48 10° SSW 20:14:38 24° W 20:17:30 10° NW visible
25 Oct ? 19:39:16 10° S 19:42:39 57° W 19:46:04 10° NNW visible
26 Oct ? 19:07:25 10° SSE 19:10:47 56° ENE 19:14:11 10° N visible
26 Oct ? 20:42:54 10° WSW 20:44:07 12° W 20:45:20 10° WNW visible
27 Oct ? 18:36:10 10° ESE 18:39:01 24° ENE 18:41:52 10° NNE visible
27 Oct ? 20:09:01 10° SSW 20:11:56 25° W 20:14:52 10° NW visible
28 Oct ? 19:36:27 10° S 19:39:51 62° W 19:43:17 10° NNW visible
29 Oct ? 19:04:32 10° SSE 19:07:53 52° ENE 19:11:16 10° N visible
29 Oct ? 20:39:41 10° WSW 20:41:11 12° W 20:42:41 10° WNW visible
30 Oct ? 18:33:16 10° ESE 18:36:02 23° ENE 18:38:48 10° NNE visible
30 Oct ? 20:05:55 10° SSW 20:08:54 27° W 20:11:55 10° NW visible
